User: anonymous   Login
Location: Charleville
(26.4021°S, 146.2454°E)
Time: 09:10:55
(UTC+10:00)
Language:

Envisat - Orbit

View from above orbital plane
View from above orbital plane
View from above satellite
View from above satellite

Ground track
Ground track

The orbit data is extracted from the following two-line orbital elements,

1 27386U 02009A   24114.90195956  .00000528  00000-0  18636-3 0  9995
2 27386  98.2780  77.8921 0001222  83.6549 288.7407 14.38549525160771
Epoch (UTC): 23 April 2024 21:38:49
Eccentricity: 0.0001222
inclination: 98.2780°
perigee height: 762 km
apogee height: 764 km
right ascension of ascending node: 77.8921°
argument of perigee: 83.6549°
revolutions per day: 14.38549525
mean anomaly at epoch: 288.7407°
orbit number at epoch: 16077

The dashed part of the orbit path shows where the satellite is in the earth's shadow,  

DLR